Location: Pianadetto
(44.4000°N, 10.1000°E)
Time: 22:34:57
(UTC+00:00)

AQUA - Pass Details

Date: 26 May 2022
Orbit: 701 x 703 km, 98.2° (Epoch: 02 July)

Event Time Altitude Azimuth Distance (km) Brightness Sun altitude
Rises 01:12:48 0° 15° (NNE) 3,101 8.6 -19.3°
Reaches altitude 10° 01:15:05 10° 17° (NNE) 2,178 7.5 -19.1°
Maximum altitude 01:19:51 72° 102° (ESE) 741 3.9 -18.7°
Enters shadow 01:22:02 32° 180° (S) 1,197 4.5 -18.5°
